TimePDT,TemperatureF,Dew PointF,Humidity,Sea Level PressureIn,VisibilityMPH,Wind Direction,Wind SpeedMPH,Gust SpeedMPH,PrecipitationIn,Events,Conditions,WindDirDegrees,DateUTC
12:53 AM,62.1,48.0,60,29.94,10.0,SSW,6.9,-,N/A,,Clear,210,2012-09-17 07:53:00
1:53 AM,61.0,46.9,60,29.95,10.0,SW,12.7,-,N/A,,Clear,230,2012-09-17 08:53:00
2:53 AM,60.1,46.0,60,29.94,10.0,SSW,9.2,-,N/A,,Clear,210,2012-09-17 09:53:00
3:53 AM,60.1,45.0,57,29.93,10.0,SW,10.4,-,N/A,,Clear,220,2012-09-17 10:53:00
5:53 AM,57.0,45.0,64,29.96,10.0,SW,6.9,-,N/A,,Clear,220,2012-09-17 12:53:00
6:53 AM,55.0,46.0,72,29.98,10.0,SW,6.9,-,N/A,,Clear,220,2012-09-17 13:53:00
7:53 AM,57.0,46.0,67,30.00,10.0,Calm,Calm,-,N/A,,Clear,0,2012-09-17 14:53:00
8:53 AM,63.0,46.9,56,30.00,10.0,SW,6.9,-,N/A,,Clear,230,2012-09-17 15:53:00
9:53 AM,69.1,46.9,45,30.00,10.0,WSW,4.6,-,N/A,,Clear,240,2012-09-17 16:53:00
10:53 AM,73.9,45.0,35,30.01,10.0,WSW,6.9,-,N/A,,Clear,240,2012-09-17 17:53:00
11:53 AM,79.0,46.9,32,29.99,10.0,Variable,4.6,-,N/A,,Clear,0,2012-09-17 18:53:00
12:53 PM,82.0,45.0,27,29.97,10.0,South,6.9,-,N/A,,Clear,190,2012-09-17 19:53:00
1:53 PM,84.9,43.0,23,29.94,10.0,SSW,9.2,17.3,N/A,,Clear,200,2012-09-17 20:53:00
2:53 PM,88.0,35.1,15,29.93,10.0,SSW,11.5,18.4,N/A,,Clear,210,2012-09-17 21:53:00
3:53 PM,88.0,35.1,15,29.91,10.0,SSW,9.2,17.3,N/A,,Clear,200,2012-09-17 22:53:00
4:53 PM,88.0,37.0,16,29.91,10.0,SW,8.1,16.1,N/A,,Clear,220,2012-09-17 23:53:00
5:53 PM,84.9,37.9,19,29.91,10.0,SSW,6.9,-,N/A,,Clear,210,2012-09-18 00:53:00
6:53 PM,81.0,39.9,23,29.91,10.0,SSW,5.8,-,N/A,,Clear,200,2012-09-18 01:53:00
7:53 PM,73.0,45.0,37,29.92,10.0,SW,8.1,-,N/A,,Clear,220,2012-09-18 02:53:00
8:53 PM,71.1,44.1,38,29.93,10.0,SW,10.4,-,N/A,,Clear,220,2012-09-18 03:53:00
9:53 PM,66.9,44.1,44,29.95,10.0,SW,8.1,-,N/A,,Clear,230,2012-09-18 04:53:00
10:53 PM,64.9,45.0,48,29.96,10.0,SW,10.4,-,N/A,,Clear,220,2012-09-18 05:53:00
11:53 PM,63.0,45.0,52,29.96,10.0,WSW,6.9,-,N/A,,Clear,240,2012-09-18 06:53:00